Location: Caseificio
(44.7500°N, 11.0500°E)
Time: 16:32:13
(UTC+00:00)

EO 1 Del DPAF - Pass Details

Date: 26 May 2022
Orbit: 460 x 464 km, 98.0° (Epoch: 06 July)

Event Time Altitude Azimuth Distance (km) Brightness Sun altitude
Rises 00:31:07 0° 34° (NE) 2,539 8.1 -21.8°
Reaches altitude 10° 00:34:13 10° 64° (ENE) 1,650 6.4 -21.6°
Enters shadow 00:37:02 11° 113° (ESE) 1,575 5.6 -21.4°
Exits shadow 01:11:45 -68° 192° (SSW) 12,336 10.1 -18.8°
Maximum altitude 02:09:08 43° 289° (WNW) 682 3.6 -12.9°
